WX1N Weather Reports


Display with metric or nautical units.
time (UTC)temp
F
wind
direction
speed
MPH
gust
MPH
rain 1hr
in
rain 24hr
in
rain mn
in
humidity
%
barometer
mb
20260905154503 74 0 0.0 0.0 0.00 0.00 0.00 71 1010.0
20260905154003 73 0 0.0 0.0 0.00 0.00 0.00 75 1010.1
20260905153503 72 0 0.0 0.0 0.00 0.00 0.00 73 1010.1
20260905153002 72 0 0.0 0.0 0.00 0.00 0.00 75 1010.1
20260905152503 71 0 0.0 0.0 0.00 0.00 0.00 74 1010.1
20260905152003 71 0 0.0 0.0 0.00 0.00 0.00 74 1010.1
20260905151503 72 0 0.0 0.0 0.00 0.00 0.00 71 1010.2
20260905151003 72 0 0.0 0.0 0.00 0.00 0.00 71 1010.1
20260905150503 73 0 0.0 0.0 0.00 0.00 0.00 71 1010.1
20260905150003 74 0 0.0 0.0 0.00 0.00 0.00 71 1010.1
20260905145503 73 0 0.0 0.0 0.00 0.00 0.00 75 1010.1
20260905145002 73 0 0.0 0.0 0.00 0.00 0.00 75 1010.1
20260905144502 73 0 0.0 0.0 0.00 0.00 0.00 75 1010.1
20260905144003 72 0 0.0 0.0 0.00 0.00 0.00 76 1010.2
20260905143503 72 0 0.0 0.0 0.00 0.00 0.00 74 1010.2
20260905143003 72 0 0.0 0.0 0.00 0.00 0.00 76 1010.2
20260905142503 71 0 0.0 0.0 0.00 0.00 0.00 76 1010.4
20260905142003 71 0 0.0 0.0 0.00 0.00 0.00 78 1010.4
20260905141503 70 0 0.0 0.0 0.00 0.00 0.00 77 1010.3
20260905141003 70 0 0.0 0.0 0.00 0.00 0.00 79 1010.2
20260905140503 70 0 0.0 0.0 0.00 0.00 0.00 78 1010.3
20260905140004 69 0 0.0 0.0 0.00 0.00 0.00 79 1010.3
20260905135503 69 0 0.0 0.0 0.00 0.00 0.00 79 1010.4
20260905135002 68 0 0.0 0.0 0.00 0.00 0.00 79 1010.4
20260905134502 68 0 0.0 0.0 0.00 0.00 0.00 74 1010.4
20260905134002 67 0 0.0 0.0 0.00 0.00 0.00 75 1010.4
20260905133503 67 0 0.0 0.0 0.00 0.00 0.00 71 1010.3
20260905133003 66 0 0.0 0.0 0.00 0.00 0.00 63 1010.3
20260905132503 66 0 0.0 0.0 0.00 0.00 0.00 50 1010.1
20260905132003 65 0 0.0 0.0 0.00 0.00 0.00 45 1010.1
20260905131503 65 0 0.0 0.0 0.00 0.00 0.00 35 1010.2
20260905131003 64 0 0.0 0.0 0.00 0.00 0.00 33 1010.2
20260905130503 64 0 0.0 0.0 0.00 0.00 0.00 33 1010.2
20260905130004 64 0 0.0 0.0 0.00 0.00 0.00 34 1010.2
20260905125503 64 0 0.0 0.0 0.00 0.00 0.00 35 1010.1
20260905125003 64 0 0.0 0.0 0.00 0.00 0.00 36 1010.1
20260905124503 63 0 0.0 0.0 0.00 0.00 0.00 36 1010.2
20260905124003 62 0 0.0 0.0 0.00 0.00 0.00 37 1010.2
20260905123504 62 0 0.0 0.0 0.00 0.00 0.00 37 1010.1
20260905123004 61 0 0.0 0.0 0.00 0.00 0.00 37 1010.1
20260905122502 61 0 0.0 0.0 0.00 0.00 0.00 37 1010.1
20260905122002 60 0 0.0 0.0 0.00 0.00 0.00 37 1010.1
20260905121503 60 0 0.0 0.0 0.00 0.00 0.00 38 1010.0
20260905121003 60 0 0.0 0.0 0.00 0.00 0.00 38 1010.0
20260905120503 60 0 0.0 0.0 0.00 0.00 0.00 38 1010.1
20260905120003 59 0 0.0 0.0 0.00 0.00 0.00 38 1010.0
20260905115503 59 0 0.0 0.0 0.00 0.00 0.00 39 1010.0
20260905115003 58 0 0.0 0.0 0.00 0.00 0.00 39 1010.1
20260905114503 58 0 0.0 0.0 0.00 0.00 0.00 39 1010.0
20260905114003 58 0 0.0 0.0 0.00 0.00 0.00 39 1010.1
20260905113503 58 0 0.0 0.0 0.00 0.00 0.00 39 1010.0
20260905113003 58 0 0.0 0.0 0.00 0.00 0.00 39 1009.9
20260905112503 58 0 0.0 0.0 0.00 0.00 0.00 39 1009.9
20260905112002 58 0 0.0 0.0 0.00 0.00 0.00 40 1009.9
20260905111503 58 0 0.0 0.0 0.00 0.00 0.00 40 1009.8
20260905111003 57 0 0.0 0.0 0.00 0.00 0.00 40 1009.7
20260905110503 57 0 0.0 0.0 0.00 0.00 0.00 40 1009.8
20260905110003 57 0 0.0 0.0 0.00 0.00 0.00 41 1009.7
20260905105503 56 0 0.0 0.0 0.00 0.00 0.00 41 1009.6
20260905105003 56 0 0.0 0.0 0.00 0.00 0.00 41 1009.6
20260905104503 56 0 0.0 0.0 0.00 0.00 0.00 41 1009.6
20260905104003 56 0 0.0 0.0 0.00 0.00 0.00 42 1009.5
20260905103504 55 0 0.0 0.0 0.00 0.00 0.00 42 1009.5
20260905103003 55 0 0.0 0.0 0.00 0.00 0.00 42 1009.5
20260905102502 55 0 0.0 0.0 0.00 0.00 0.00 42 1009.5
20260905102003 54 0 0.0 0.0 0.00 0.00 0.00 42 1009.4
20260905101503 54 0 0.0 0.0 0.00 0.00 0.00 42 1009.4
20260905101003 54 0 0.0 0.0 0.00 0.00 0.00 43 1009.4
20260905100503 54 0 0.0 0.0 0.00 0.00 0.00 43 1009.4
20260905100003 53 0 0.0 0.0 0.00 0.00 0.00 43 1009.3
20260905095503 54 0 0.0 0.0 0.00 0.00 0.00 43 1009.3
20260905095003 54 0 0.0 0.0 0.00 0.00 0.00 43 1009.2
20260905094503 54 0 0.0 0.0 0.00 0.00 0.00 43 1009.2
20260905094003 54 0 0.0 0.0 0.00 0.00 0.00 43 1009.1
20260905093502 54 0 0.0 0.0 0.00 0.00 0.00 43 1009.1
20260905093003 54 0 0.0 0.0 0.00 0.00 0.00 43 1009.1
20260905092503 54 0 0.0 0.0 0.00 0.00 0.00 43 1009.1
20260905092003 54 0 0.0 0.0 0.00 0.00 0.00 43 1009.2
20260905091503 54 0 0.0 0.0 0.00 0.00 0.00 43 1009.1
20260905091003 54 0 0.0 0.0 0.00 0.00 0.00 44 1009.0
20260905090503 54 0 0.0 0.0 0.00 0.00 0.00 44 1009.0
20260905090003 54 0 0.0 0.0 0.00 0.00 0.00 43 1009.0
20260905085503 54 0 0.0 0.0 0.00 0.00 0.00 43 1009.0
20260905085003 54 0 0.0 0.0 0.00 0.00 0.00 43 1009.0
20260905084503 54 0 0.0 0.0 0.00 0.00 0.00 44 1009.0
20260905084003 54 0 0.0 0.0 0.00 0.00 0.00 43 1009.0
20260905083503 55 0 0.0 0.0 0.00 0.00 0.00 43 1009.0
20260905083003 55 0 0.0 0.0 0.00 0.00 0.00 43 1009.0
20260905082503 55 0 0.0 0.0 0.00 0.00 0.00 43 1008.9
20260905082003 55 0 0.0 0.0 0.00 0.00 0.00 43 1009.0
20260905081503 55 0 0.0 0.0 0.00 0.00 0.00 43 1008.9
20260905081003 55 0 0.0 0.0 0.00 0.00 0.00 44 1008.9
20260905080503 55 0 0.0 0.0 0.00 0.00 0.00 44 1008.9
20260905080003 55 0 0.0 0.0 0.00 0.00 0.00 43 1008.9
20260905075503 55 0 0.0 0.0 0.00 0.00 0.00 43 1008.9
20260905075003 55 0 0.0 0.0 0.00 0.00 0.00 43 1008.9
20260905074503 55 0 0.0 0.0 0.00 0.00 0.00 43 1008.8
20260905074003 55 0 0.0 0.0 0.00 0.00 0.00 44 1008.8
20260905073502 55 0 0.0 0.0 0.00 0.00 0.00 44 1008.9
20260905073003 56 0 0.0 0.0 0.00 0.00 0.00 45 1008.9
20260905072503 56 0 0.0 0.0 0.00 0.00 0.00 45 1008.9
20260905072003 56 0 0.0 0.0 0.00 0.00 0.00 44 1008.9
20260905071503 56 0 0.0 0.0 0.00 0.00 0.00 43 1008.9
20260905071003 56 0 0.0 0.0 0.00 0.00 0.00 43 1009.0
20260905070503 57 0 0.0 0.0 0.00 0.00 0.00 43 1009.1
20260905070003 57 0 0.0 0.0 0.00 0.00 0.00 43 1009.1
20260905065503 57 0 0.0 0.0 0.00 0.00 0.00 43 1009.1
20260905065003 57 0 0.0 0.0 0.00 0.00 0.00 43 1009.1
20260905064503 57 0 0.0 0.0 0.00 0.00 0.00 43 1009.2
20260905064003 57 0 0.0 0.0 0.00 0.00 0.00 43 1009.2
20260905063503 57 0 0.0 0.0 0.00 0.00 0.00 44 1009.3
20260905063002 57 0 0.0 0.0 0.00 0.00 0.00 43 1009.2
20260905062503 57 0 0.0 0.0 0.00 0.00 0.00 43 1009.2
20260905062003 57 0 0.0 0.0 0.00 0.00 0.00 43 1009.3
20260905061503 57 0 0.0 0.0 0.00 0.00 0.00 44 1009.3
20260905061003 57 0 0.0 0.0 0.00 0.00 0.00 44 1009.3
20260905060503 57 0 0.0 0.0 0.00 0.00 0.00 45 1009.3
20260905060003 57 0 0.0 0.0 0.00 0.00 0.00 45 1009.3
20260905055503 58 0 0.0 0.0 0.00 0.00 0.00 46 1009.3
20260905055003 58 0 0.0 0.0 0.00 0.00 0.00 46 1009.3
20260905054503 58 0 0.0 0.0 0.00 0.00 0.00 46 1009.3
20260905054004 58 0 0.0 0.0 0.00 0.00 0.00 46 1009.3
20260905053503 58 0 0.0 0.0 0.00 0.00 0.00 46 1009.2
20260905053003 58 0 0.0 0.0 0.00 0.00 0.00 47 1009.2
20260905052503 58 0 0.0 0.0 0.00 0.00 0.00 48 1009.2
20260905052003 59 0 0.0 0.0 0.00 0.00 0.00 44 1009.2
20260905051503 59 0 0.0 0.0 0.00 0.00 0.00 44 1009.2
20260905051004 59 0 0.0 0.0 0.00 0.00 0.00 44 1009.2
20260905050503 59 0 0.0 0.0 0.00 0.00 0.00 44 1009.3
20260905050003 59 0 0.0 0.0 0.00 0.00 0.00 45 1009.3
20260905045504 59 0 0.0 0.0 0.00 0.00 0.00 46 1009.3
20260905045002 59 0 0.0 0.0 0.00 0.00 0.00 48 1009.5
20260905044503 59 0 0.0 0.0 0.00 0.00 0.00 48 1009.6
20260905044003 59 0 0.0 0.0 0.00 0.00 0.00 49 1009.5
20260905043503 59 0 0.0 0.0 0.00 0.00 0.00 49 1009.5
20260905043003 60 0 0.0 0.0 0.00 0.00 0.00 49 1009.5
20260905042503 60 0 0.0 0.0 0.00 0.00 0.00 49 1009.4
20260905042003 60 0 0.0 0.0 0.00 0.00 0.00 48 1009.4
20260905041503 60 0 0.0 0.0 0.00 0.00 0.00 48 1009.4
20260905041003 60 0 0.0 0.0 0.00 0.00 0.00 50 1009.4
20260905040503 60 0 0.0 0.0 0.00 0.00 0.00 50 1009.5
20260905040003 61 0 0.0 0.0 0.00 0.00 0.00 50 1009.5
20260905035503 61 0 0.0 0.0 0.00 0.00 0.00 50 1009.4
20260905035003 61 0 0.0 0.0 0.00 0.00 0.00 50 1009.3
20260905034503 61 0 0.0 0.0 0.00 0.00 0.00 50 1009.3
20260905034003 61 0 0.0 0.0 0.00 0.00 0.00 50 1009.4
20260905033503 62 0 0.0 0.0 0.00 0.00 0.00 51 1009.3
20260905033003 62 0 0.0 0.0 0.00 0.00 0.00 51 1009.3
20260905032503 62 0 0.0 0.0 0.00 0.00 0.00 50 1009.5
20260905032003 62 0 0.0 0.0 0.00 0.00 0.00 51 1009.3
20260905031503 62 0 0.0 0.0 0.00 0.00 0.00 52 1009.3
20260905031003 62 0 0.0 0.0 0.00 0.00 0.00 53 1009.3
20260905030503 62 0 0.0 0.0 0.00 0.00 0.00 54 1009.3
20260905030002 62 0 0.0 0.0 0.00 0.00 0.00 56 1009.4
20260905025503 62 0 0.0 0.0 0.00 0.00 0.00 57 1009.3
20260905025003 62 0 0.0 0.0 0.00 0.00 0.00 56 1009.5
20260905024503 62 0 0.0 0.0 0.00 0.00 0.00 58 1009.4
20260905024003 63 0 0.0 0.0 0.00 0.00 0.00 59 1009.5
20260905023503 63 0 0.0 0.0 0.00 0.00 0.00 59 1009.5
20260905023003 63 0 0.0 0.0 0.00 0.00 0.00 58 1009.6
20260905022503 64 0 0.0 0.0 0.00 0.00 0.00 56 1009.7
20260905022003 64 0 0.0 0.0 0.00 0.00 0.00 56 1009.7
20260905021504 64 0 0.0 0.0 0.00 0.00 0.00 55 1009.7
20260905021002 64 0 0.0 0.0 0.00 0.00 0.00 56 1009.8
20260905020503 64 0 0.0 0.0 0.00 0.00 0.00 57 1009.7
20260905020003 64 0 0.0 0.0 0.00 0.00 0.00 56 1009.8
20260905015503 64 0 0.0 0.0 0.00 0.00 0.00 57 1009.8
20260905015003 64 0 0.0 0.0 0.00 0.00 0.00 57 1009.9
20260905014503 64 0 0.0 0.0 0.00 0.00 0.00 57 1009.9
20260905014003 64 0 0.0 0.0 0.00 0.00 0.00 57 1009.9
20260905013503 64 0 0.0 0.0 0.00 0.00 0.00 58 1009.9
20260905013003 64 0 0.0 0.0 0.00 0.00 0.00 58 1009.9
20260905012503 64 0 0.0 0.0 0.00 0.00 0.00 58 1009.9
20260905012003 64 0 0.0 0.0 0.00 0.00 0.00 56 1009.8
20260905011503 64 0 0.0 0.0 0.00 0.00 0.00 57 1009.9
20260905011003 64 0 0.0 0.0 0.00 0.00 0.00 57 1009.8
20260905010503 63 0 0.0 0.0 0.00 0.00 0.00 61 1009.7
20260905010003 64 0 0.0 0.0 0.00 0.00 0.00 62 1009.7
20260905005503 64 0 0.0 0.0 0.00 0.00 0.00 62 1009.7
20260905005003 64 0 0.0 0.0 0.00 0.00 0.00 64 1009.8
20260905004503 64 0 0.0 0.0 0.00 0.00 0.00 64 1009.6
20260905004003 64 0 0.0 0.0 0.00 0.00 0.00 66 1009.7
20260905003503 64 0 0.0 0.0 0.00 0.00 0.00 68 1009.6
20260905003004 64 0 0.0 0.0 0.00 0.00 0.00 71 1009.7
20260905002503 64 0 0.0 0.0 0.00 0.00 0.00 73 1009.7
20260905002003 64 0 0.0 0.0 0.00 0.00 0.00 75 1009.6
20260905001504 64 0 0.0 0.0 0.00 0.00 0.00 77 1009.6
20260905001004 64 0 0.0 0.0 0.00 0.00 0.00 78 1009.5
20260905000503 65 0 0.0 0.0 0.00 0.00 0.00 78 1009.5
20260905000003 65 0 0.0 0.0 0.00 0.00 0.00 79 1009.4
20260904235503 66 0 0.0 0.0 0.00 0.00 0.00 79 1009.2
20260904235003 66 0 0.0 0.0 0.00 0.00 0.00 80 1009.3
20260904234503 66 0 0.0 0.0 0.00 0.00 0.00 80 1009.2
20260904234003 67 0 0.0 0.0 0.00 0.00 0.00 80 1009.3
20260904233503 67 0 0.0 0.0 0.00 0.00 0.00 81 1009.3
20260904233003 67 0 0.0 0.0 0.00 0.00 0.00 81 1009.2
20260904232503 67 0 0.0 0.0 0.00 0.00 0.00 81 1009.1
20260904232004 68 0 0.0 0.0 0.00 0.00 0.00 81 1009.2
20260904231503 68 0 0.0 0.0 0.00 0.00 0.00 80 1009.1
20260904231003 69 0 0.0 0.0 0.00 0.00 0.00 80 1009.0
20260904230503 69 0 0.0 0.0 0.00 0.00 0.00 79 1009.0
20260904230004 70 0 0.0 0.0 0.00 0.00 0.00 79 1008.9
20260904225504 70 0 0.0 0.0 0.00 0.00 0.00 78 1009.0
20260904225004 71 0 0.0 0.0 0.00 0.00 0.00 77 1008.9
20260904224503 72 0 0.0 0.0 0.00 0.00 0.00 76 1008.9
20260904224003 72 0 0.0 0.0 0.00 0.00 0.00 75 1009.0
20260904223503 73 0 0.0 0.0 0.00 0.00 0.00 75 1008.9
20260904223003 73 0 0.0 0.0 0.00 0.00 0.00 74 1008.8
20260904222503 74 0 0.0 0.0 0.00 0.00 0.00 72 1008.7
20260904222003 74 0 0.0 0.0 0.00 0.00 0.00 73 1008.7
20260904221503 75 0 0.0 0.0 0.00 0.00 0.00 72 1008.6
20260904221003 75 0 0.0 0.0 0.00 0.00 0.00 71 1008.7
20260904220504 75 0 0.0 0.0 0.00 0.00 0.00 66 1008.8
20260904220003 76 0 0.0 0.0 0.00 0.00 0.00 66 1008.8
20260904215503 76 0 0.0 0.0 0.00 0.00 0.00 63 1008.7
20260904215003 76 0 0.0 0.0 0.00 0.00 0.00 64 1008.8
20260904214503 76 0 0.0 0.0 0.00 0.00 0.00 62 1008.9
20260904214003 77 0 0.0 0.0 0.00 0.00 0.00 63 1008.7
20260904213503 77 0 0.0 0.0 0.00 0.00 0.00 62 1008.8
20260904213003 77 0 0.0 0.0 0.00 0.00 0.00 60 1008.8
20260904212503 78 0 0.0 0.0 0.00 0.00 0.00 62 1008.8
20260904212003 78 0 0.0 0.0 0.00 0.00 0.00 63 1008.8
20260904211503 78 0 0.0 0.0 0.00 0.00 0.00 63 1008.8
20260904211003 78 0 0.0 0.0 0.00 0.00 0.00 61 1008.7
20260904210504 78 0 0.0 0.0 0.00 0.00 0.00 62 1008.7
20260904210003 78 0 0.0 0.0 0.00 0.00 0.00 60 1008.7
20260904205503 77 0 0.0 0.0 0.00 0.00 0.00 62 1008.6
20260904205003 77 0 0.0 0.0 0.00 0.00 0.00 63 1008.7
20260904204503 77 0 0.0 0.0 0.00 0.00 0.00 61 1008.7
20260904204003 77 0 0.0 0.0 0.00 0.00 0.00 60 1008.6
20260904203503 77 0 0.0 0.0 0.00 0.00 0.00 60 1008.7
20260904203003 77 0 0.0 0.0 0.00 0.00 0.00 60 1008.8
20260904202503 77 0 0.0 0.0 0.00 0.00 0.00 57 1008.7
20260904202003 78 0 0.0 0.0 0.00 0.00 0.00 58 1008.7
20260904201503 78 0 0.0 0.0 0.00 0.00 0.00 59 1008.6
20260904201004 78 0 0.0 0.0 0.00 0.00 0.00 56 1008.6
20260904200504 78 0 0.0 0.0 0.00 0.00 0.00 56 1008.5
20260904200003 79 0 0.0 0.0 0.00 0.00 0.00 57 1008.7
20260904195503 79 0 0.0 0.0 0.00 0.00 0.00 64 1008.7
20260904195003 79 0 0.0 0.0 0.00 0.00 0.00 61 1008.7
20260904194503 79 0 0.0 0.0 0.00 0.00 0.00 61 1008.7
20260904194003 79 0 0.0 0.0 0.00 0.00 0.00 59 1008.7
20260904193504 80 0 0.0 0.0 0.00 0.00 0.00 56 1008.6
20260904193004 80 0 0.0 0.0 0.00 0.00 0.00 54 1008.6
20260904192504 81 0 0.0 0.0 0.00 0.00 0.00 54 1008.6
20260904192004 82 0 0.0 0.0 0.00 0.00 0.00 58 1008.7
20260904191503 82 0 0.0 0.0 0.00 0.00 0.00 53 1008.7
20260904191003 82 0 0.0 0.0 0.00 0.00 0.00 56 1008.8
20260904190503 82 0 0.0 0.0 0.00 0.00 0.00 56 1008.8
20260904190003 82 0 0.0 0.0 0.00 0.00 0.00 53 1008.7
20260904185503 80 0 0.0 0.0 0.00 0.00 0.00 56 1008.8
20260904185003 79 0 0.0 0.0 0.00 0.00 0.00 55 1008.8
20260904184503 78 0 0.0 0.0 0.00 0.00 0.00 57 1008.9
20260904184004 78 0 0.0 0.0 0.00 0.00 0.00 52 1008.8
20260904183504 78 0 0.0 0.0 0.00 0.00 0.00 53 1008.9
20260904183004 79 0 0.0 0.0 0.00 0.00 0.00 51 1009.0
20260904182504 80 0 0.0 0.0 0.00 0.00 0.00 53 1009.0
20260904182004 80 0 0.0 0.0 0.00 0.00 0.00 57 1009.0
20260904181503 80 0 0.0 0.0 0.00 0.00 0.00 52 1009.1
20260904181003 81 0 0.0 0.0 0.00 0.00 0.00 54 1009.1
20260904180503 82 0 0.0 0.0 0.00 0.00 0.00 52 1009.1
20260904180003 83 0 0.0 0.0 0.00 0.00 0.00 53 1009.2
20260904175503 83 0 0.0 0.0 0.00 0.00 0.00 52 1009.0
20260904175003 84 0 0.0 0.0 0.00 0.00 0.00 51 1009.0
20260904174503 85 0 0.0 0.0 0.00 0.00 0.00 50 1008.9
20260904174004 86 0 0.0 0.0 0.00 0.00 0.00 52 1008.8
20260904173504 86 0 0.0 0.0 0.00 0.00 0.00 51 1008.7
20260904173003 86 0 0.0 0.0 0.00 0.00 0.00 50 1008.7
20260904172503 86 0 0.0 0.0 0.00 0.00 0.00 52 1008.8
20260904172003 86 0 0.0 0.0 0.00 0.00 0.00 53 1008.9
20260904171503 85 0 0.0 0.0 0.00 0.00 0.00 53 1009.0
20260904171003 84 0 0.0 0.0 0.00 0.00 0.00 58 1009.1
20260904170503 83 0 0.0 0.0 0.00 0.00 0.00 57 1009.2
20260904170003 82 0 0.0 0.0 0.00 0.00 0.00 57 1009.1
20260904165503 81 0 0.0 0.0 0.00 0.00 0.00 62 1009.1
20260904165003 81 0 0.0 0.0 0.00 0.00 0.00 62 1009.3
20260904164503 82 0 0.0 0.0 0.00 0.00 0.00 57 1009.3
20260904164003 83 0 0.0 0.0 0.00 0.00 0.00 61 1009.2
20260904163503 83 0 0.0 0.0 0.00 0.00 0.00 67 1009.3
20260904163004 82 0 0.0 0.0 0.00 0.00 0.00 63 1009.4
20260904162504 82 0 0.0 0.0 0.00 0.00 0.00 64 1009.5
20260904162003 83 0 0.0 0.0 0.00 0.00 0.00 64 1009.5
20260904161503 84 0 0.0 0.0 0.00 0.00 0.00 61 1009.5
20260904161003 84 0 0.0 0.0 0.00 0.00 0.00 60 1009.5
20260904160503 84 0 0.0 0.0 0.00 0.00 0.00 58 1009.6
20260904160003 84 0 0.0 0.0 0.00 0.00 0.00 64 1009.6
20260904155503 83 0 0.0 0.0 0.00 0.00 0.00 65 1009.7
20260904155003 82 0 0.0 0.0 0.00 0.00 0.00 65 1009.7